Location: Dentlein
(49.1477°N, 10.4231°E)
Time: 03:14:44
(UTC+00:00)

Cosmos 1455 Rocket - Pass Details

Date: 23 May 2024
Orbit: 602 x 625 km, 82.5° (Epoch: 13 June)

Event Time Altitude Azimuth Distance (km) Brightness Sun altitude
Rises 02:37:25 0° 355° (N) 2,881 7.1 -7.0°
Reaches altitude 10° 02:39:43 10° 2° (N) 1,975 6.4 -6.7°
Maximum altitude 02:43:55 44° 75° (ENE) 850 4.4 -6.2°
Drops below altitude 10° 02:48:06 10° 148° (SSE) 1,974 5.6 -5.7°
Sets 02:50:25 0° 155° (SSE) 2,879 6.3 -5.4°
